Waarnemingen

Advertentie
Mijn weer
Karesuando A, Zweden (2081): temperatuur & dauwpunt: 11.01.2020 23:00:00 - 17.01.2020 23:00:00 (CET)Karesuando A, Zweden (2081): windsnelheid & windstoten: 11.01.2020 23:00:00 - 17.01.2020 23:00:00 (CET)Karesuando A, Zweden (2081): windrichting: 11.01.2020 23:00:00 - 17.01.2020 23:00:00 (CET)Karesuando A, Zweden (2081): luchtdruk: 11.01.2020 23:00:00 - 17.01.2020 23:00:00 (CET)Karesuando A, Zweden (2081): zicht: 11.01.2020 23:00:00 - 17.01.2020 23:00:00 (CET)Karesuando A, Zweden (2081): neerslag: 11.01.2020 23:00:00 - 17.01.2020 23:00:00 (CET)
Datum & Tijd tt [°C] td [°C] ff [km/u] ff [kn] fx [km/u] fx [kn] dd ppp [hPa] vv [km] rr [mm]
17.01.2020 23:00:00 -16,0 -18,2 0 0 - - N 1014,8 12 0,0
17.01.2020 22:00:00 -15,5 -17,7 0 0 3 2 N 1015,2 3,8 0,0
17.01.2020 21:00:00 -15,3 -17,2 0 0 5 3 N 1015,4 3,0 0,0
17.01.2020 20:00:00 -15,3 -17,2 3 2 6 4 ZZW 1015,7 8 0,0
17.01.2020 19:00:00 -14,9 -16,7 4 2 9 5 ZZW 1015,6 13 0,0
17.01.2020 18:00:00 -14,9 -16,8 4 2 8 5 Z 1015,3 11 0,0
17.01.2020 17:00:00 -15,4 -17,2 2 1 - - NW 1015,2 11 0,0
17.01.2020 16:00:00 -15,6 -17,5 4 2 8 4 NNW 1015,2 4,8 0,0
17.01.2020 15:00:00 -16,5 -18,5 2 1 8 4 WZW 1014,9 1,9 0,1
17.01.2020 14:00:00 -18,0 -19,9 5 3 8 4 W 1014,7 16 0,0
17.01.2020 13:00:00 -17,4 -19,8 6 3 9 5 WNW 1013,9 19 0,0
17.01.2020 12:00:00 -13,7 -15,4 6 3 9 5 NNW 1013,1 14 0,0
17.01.2020 11:00:00 -11,1 -12,4 4 2 8 5 NNW 1011,7 17 0,0
17.01.2020 10:00:00 -9,6 -11,0 3 2 13 7 W 1011,0 12 0,0
17.01.2020 09:00:00 -7,4 -8,7 5 3 13 7 N 1009,4 12 0,0
17.01.2020 08:00:00 -7,2 -8,5 8 5 14 8 N 1008,3 18 0,0
17.01.2020 07:00:00 -7,1 -8,3 8 5 14 7 N 1007,4 16 0,0
17.01.2020 06:00:00 -8,9 -10,2 6 3 9 5 NNW 1006,5 12 0,0
17.01.2020 05:00:00 -10,2 -11,6 3 1 10 5 WNW 1005,6 15 0,0
17.01.2020 04:00:00 -10,4 -11,9 5 3 8 4 WZW 1004,3 17 0,0
17.01.2020 03:00:00 -10,6 -12,0 0 0 7 4 N 1003,4 16 0,0
17.01.2020 02:00:00 -10,5 -12,0 4 2 8 4 NNW 1002,6 25 0,0
17.01.2020 01:00:00 -10,4 -11,7 5 3 9 5 O 1001,7 15 0,0
17.01.2020 00:00:00 -10,3 -11,7 6 3 10 6 O 1001,3 9 0,2
16.01.2020 23:00:00 -9,5 -10,8 7 4 15 8 O 1000,7 1,5 0,4
16.01.2020 22:00:00 -8,3 -9,5 7 4 13 7 O 1000,3 1,8 0,6
16.01.2020 21:00:00 -7,5 -8,8 6 3 12 6 ZO 1000,0 3,9 0,1
16.01.2020 20:00:00 -7,1 -8,2 6 4 12 7 OZO 999,8 3,5 0,4
16.01.2020 19:00:00 -6,6 -7,6 5 3 10 5 OZO 999,8 1,9 0,3
16.01.2020 18:00:00 -6,6 -7,5 6 3 16 9 ZZO 1000,0 9 0,0
16.01.2020 17:00:00 -6,5 -7,6 8 4 12 6 ZZO 1000,2 12 0,1
16.01.2020 16:00:00 -6,6 -7,5 2 1 6 3 Z 1000,6 6 0,0
16.01.2020 15:00:00 -6,9 -7,7 2 1 6 3 ZO 1000,5 5 0,0
16.01.2020 14:00:00 -7,0 -7,8 4 2 7 4 ZO 1000,6 3,3 0,0
16.01.2020 13:00:00 -7,6 -8,5 3 1 6 3 ZZW 1000,7 1,4 0,0
16.01.2020 12:00:00 -6,9 -7,7 3 1 5 3 O 1000,1 1,1 0,0
16.01.2020 11:00:00 -6,4 -7,2 4 2 7 4 ZW 1000,0 1,1 0,0
16.01.2020 10:00:00 -6,2 -7,1 2 1 5 3 W 999,5 2,0 0,0
16.01.2020 09:00:00 -6,3 -7,0 3 1 6 3 ZZO 998,8 1,3 0,0
16.01.2020 08:00:00 -7,0 -7,8 3 1 4 2 ONO 998,2 1,2 0,0
16.01.2020 07:00:00 -7,3 -8,2 2 1 5 3 O 997,7 7 0,0
16.01.2020 06:00:00 -7,5 -8,5 3 1 3 2 ZZO 997,3 4,5 0,1
16.01.2020 05:00:00 -7,0 -7,9 0 0 3 2 N 996,6 2,4 0,1
16.01.2020 04:00:00 -7,6 -8,5 2 1 5 3 ZZW 995,6 2,1 0,0
16.01.2020 03:00:00 -8,3 -9,4 3 2 8 4 Z 994,9 9 0,0
16.01.2020 02:00:00 -9,3 -10,4 4 2 6 3 W 994,1 4,9 0,0
16.01.2020 01:00:00 -10,4 -11,5 3 2 6 3 ZW 993,5 3,8 0,0
16.01.2020 00:00:00 -11,2 -12,8 4 2 8 4 WZW 993,1 16 0,0
15.01.2020 23:00:00 -10,0 -11,4 5 3 8 4 WZW 992,4 14 0,0
15.01.2020 22:00:00 -9,9 -11,2 5 3 8 4 ZW 991,2 6 0,2
15.01.2020 21:00:00 -10,5 -11,9 6 3 10 5 ZZW 990,3 12 0,0
15.01.2020 20:00:00 -10,7 -12,2 3 2 8 5 W 989,3 15 0,0
15.01.2020 19:00:00 -11,5 -12,8 5 3 7 4 WZW 988,3 12 0,0
15.01.2020 18:00:00 -12,3 -14,0 5 3 9 5 ZZW 987,9 9 0,1
15.01.2020 17:00:00 -12,2 -13,8 5 3 8 5 ZW 986,9 3,8 0,1
15.01.2020 16:00:00 -12,6 -14,2 4 2 6 3 ZZW 986,4 13 0,0
15.01.2020 15:00:00 -11,8 -13,4 2 1 5 3 WZW 985,8 3,4 0,1
15.01.2020 14:00:00 -12,2 -13,8 3 2 10 6 W 985,6 15 0,0
15.01.2020 13:00:00 -13,5 -15,1 5 3 9 5 NW 985,2 6 0,0
15.01.2020 12:00:00 -15,1 -17,0 4 2 6 3 N 985,2 7 0,0
15.01.2020 11:00:00 -14,7 -16,4 2 1 10 5 W 984,9 14 0,0
15.01.2020 10:00:00 -16,5 -18,4 3 1 4 2 NW 984,2 14 -
15.01.2020 09:00:00 -17,1 -19,0 0 0 15 8 N 984,1 18 0,0
15.01.2020 08:00:00 -19,6 -22,1 6 3 9 5 WZW 983,5 17 0,0
15.01.2020 07:00:00 -16,0 -17,7 8 4 12 6 N 982,8 17 0,0
15.01.2020 06:00:00 -15,2 -16,9 6 3 13 7 WZW 982,5 18 0,1
15.01.2020 05:00:00 -12,4 -13,8 4 2 9 5 WZW 981,8 15 0,0
15.01.2020 04:00:00 -12,5 -14,1 6 3 15 8 WNW 981,3 17 0,0
15.01.2020 03:00:00 -9,2 -10,6 12 6 19 11 NW 980,6 12 0,1
15.01.2020 02:00:00 -8,2 -9,4 13 7 21 11 NW 980,1 3,0 0,2
15.01.2020 01:00:00 -7,6 -8,8 10 5 15 8 NW 979,8 2,8 0,2
15.01.2020 00:00:00 -6,9 -7,9 7 4 10 5 NNW 979,7 2,2 0,5
14.01.2020 23:00:00 -6,9 -7,9 6 3 8 4 NW 980,2 1,5 0,5
14.01.2020 22:00:00 -7,3 -8,4 3 2 5 3 NW 980,9 1,5 0,7
14.01.2020 21:00:00 -7,6 -8,7 4 2 13 7 NO 981,7 1,8 0,9
14.01.2020 20:00:00 -8,2 -9,3 8 4 22 12 ONO 983,0 1,2 0,8
14.01.2020 19:00:00 -8,4 -9,7 8 5 22 12 O 984,4 1,3 1,1
14.01.2020 18:00:00 -8,1 -9,3 13 7 21 11 O 985,8 1,1 0,7
14.01.2020 17:00:00 -8,9 -10,1 3 2 14 8 O 987,3 17 0,0
14.01.2020 16:00:00 -10,4 -11,8 4 2 14 8 NO 988,6 17 0,0
14.01.2020 15:00:00 -10,1 -11,5 5 3 14 7 ONO 989,7 18 0,0
14.01.2020 14:00:00 -10,3 -11,6 11 6 16 9 O 990,8 17 0,0
14.01.2020 13:00:00 -11,4 -12,7 11 6 19 10 O 991,5 17 0,0
14.01.2020 12:00:00 -11,5 -13,0 12 6 22 12 O 992,1 17 0,0
14.01.2020 11:00:00 -10,6 -11,8 11 6 16 9 O 992,3 18 0,0
14.01.2020 10:00:00 -10,6 -12,2 10 5 14 8 O 992,9 16 0,0
14.01.2020 09:00:00 -11,1 -12,6 9 5 13 7 OZO 992,8 15 0,0
14.01.2020 08:00:00 -10,5 -12,2 8 4 13 7 ZW 991,8 17 0,0
14.01.2020 07:00:00 -8,7 -10,3 8 4 15 8 ZZW 990,9 21 0,0
14.01.2020 06:00:00 -7,2 -8,9 9 5 16 9 ZW 990,5 20 0,0
14.01.2020 05:00:00 -6,5 -8,5 7 4 13 7 ZW 990,6 21 0,0
14.01.2020 04:00:00 -4,8 -7,6 4 2 29 16 ZW 989,3 20 0,0
14.01.2020 03:00:00 -3,8 -6,9 22 12 33 18 WZW 988,1 22 0,0
14.01.2020 02:00:00 -3,9 -6,6 22 12 33 18 ZW 987,5 21 0,0
14.01.2020 01:00:00 -4,6 -7,2 24 13 33 18 ZW 987,0 22 0,0
14.01.2020 00:00:00 -11,2 -12,4 8 4 16 9 W 987,3 30 0,0
13.01.2020 23:00:00 -7,5 -9,7 5 3 34 18 ZZO 986,4 22 0,0
13.01.2020 22:00:00 -6,7 -7,2 8 5 17 9 ONO 986,3 17 0,0
13.01.2020 21:00:00 -12,7 -13,7 8 5 19 11 ZZW 986,2 14 0,0
13.01.2020 20:00:00 -15,0 -16,4 11 6 16 9 O 986,3 16 0,0
13.01.2020 19:00:00 -15,9 -17,8 9 5 17 9 Z 986,2 19 0,0
13.01.2020 18:00:00 -14,8 -16,5 13 7 17 9 O 986,3 20 0,0
13.01.2020 17:00:00 -14,0 -15,5 14 7 18 10 ONO 986,2 15 0,0
13.01.2020 16:00:00 -15,4 -17,3 12 7 16 9 ONO 986,4 14 0,0
13.01.2020 15:00:00 -17,2 -19,2 5 3 12 7 O 986,5 14 0,0
13.01.2020 14:00:00 -17,4 -19,3 8 4 - - OZO 986,6 15 0,0
13.01.2020 13:00:00 -16,0 -18,2 4 2 11 6 O 986,4 8 0,0
13.01.2020 12:00:00 -15,0 -16,6 10 5 14 8 O 986,7 14 0,0
13.01.2020 11:00:00 -16,6 -18,5 10 5 14 7 O 987,0 15 0,0
13.01.2020 10:00:00 -16,4 -18,4 11 6 15 8 O 987,2 11 0,0
13.01.2020 09:00:00 -16,0 -17,7 9 5 16 9 OZO 987,1 10 0,0
13.01.2020 08:00:00 -16,0 -17,1 9 5 13 7 ONO 986,7 12 -
13.01.2020 07:00:00 -17,8 -20,0 2 1 12 6 NNO 987,3 12 0,0
13.01.2020 06:00:00 -16,8 -18,6 4 2 14 8 N 986,8 17 0,0
13.01.2020 05:00:00 -14,9 -16,4 4 2 11 6 Z 986,8 16 0,0
13.01.2020 04:00:00 -14,8 -16,2 3 2 9 5 WZW 987,2 14 0,0
13.01.2020 03:00:00 -15,5 -17,4 3 2 8 5 WNW 987,0 13 0,0
13.01.2020 02:00:00 -12,9 -14,0 5 3 13 7 NNO 986,8 14 0,0
13.01.2020 01:00:00 -10,8 -11,6 8 5 14 7 WNW 986,6 17 0,0
13.01.2020 00:00:00 -8,5 -10,4 8 4 19 11 ZW 986,2 15 0,0
12.01.2020 23:00:00 -11,2 -12,5 5 3 14 8 W 986,1 14 0,0
12.01.2020 22:00:00 -11,2 -12,9 9 5 18 10 ZW 985,5 14 0,0
12.01.2020 21:00:00 -9,7 -11,2 12 7 16 9 ZW 985,2 17 0,0
12.01.2020 20:00:00 -10,3 -11,7 9 5 16 8 ZZW 984,8 17 0,0
12.01.2020 19:00:00 -10,1 -11,7 11 6 14 8 ZW 984,4 17 0,0
12.01.2020 18:00:00 -7,5 -9,1 10 5 18 10 WZW 983,9 16 0,0
12.01.2020 17:00:00 -7,1 -8,7 9 5 17 9 NW 983,5 17 0,0
12.01.2020 16:00:00 -4,1 -5,9 14 8 32 18 W 982,6 21 0,0
12.01.2020 15:00:00 -9,7 -11,0 3 2 12 6 NO 982,3 20 0,0
12.01.2020 14:00:00 -10,8 -12,2 3 2 9 5 N 981,4 41 0,0
12.01.2020 13:00:00 -11,9 -13,3 4 2 6 4 Z 980,9 38 0,0
12.01.2020 12:00:00 -11,8 -13,3 4 2 9 5 WZW 979,7 39 0,1
12.01.2020 11:00:00 -11,7 -13,1 4 2 6 3 NNW 979,0 7 0,1
12.01.2020 10:00:00 -13,0 -14,5 3 2 8 4 WZW 978,5 9 -
12.01.2020 09:00:00 -13,4 -15,0 5 3 6 4 NNW 977,9 42 0,0
12.01.2020 08:00:00 -12,8 -13,8 3 2 10 5 O 977,5 0,3 0,0
12.01.2020 07:00:00 -11,2 -12,4 7 4 10 6 O 976,5 24 0,0
12.01.2020 06:00:00 -11,3 -12,6 3 2 10 5 ZZW 976,9 32 0,0
12.01.2020 05:00:00 -10,4 -11,2 3 2 13 7 NO 976,5 32 0,0
12.01.2020 04:00:00 -9,2 -10,3 3 2 11 6 Z 976,2 19 0,0
12.01.2020 03:00:00 -6,8 -7,6 6 3 9 5 ZW 976,2 42 0,0
12.01.2020 02:00:00 -5,4 -6,3 5 3 10 5 ZW 976,2 21 0,6
12.01.2020 01:00:00 -5,0 -5,8 4 2 7 4 Z 976,8 2,1 0,2
12.01.2020 00:00:00 -5,1 -6,0 4 2 7 4 OZO 977,5 5 0,2
11.01.2020 23:00:00 -5,1 -5,9 4 2 6 3 O 978,0 5 0,3

tt = temperatuur
td = dauwpunt
ff = windsnelheid
fx = windstoten
dd = windrichting
ppp = luchtdruk
vv = zicht
rr = neerslag

Weerstations in de omgeving